Other Surface Observations
Issued by NWS

Home | Current Version | Previous Version | Text Only | Print | Product List | Glossary On
Versions: 1 2 3 4 5 6 7 8 9 10 11 12 13 14 15 16 17 18 19 20 21 22 23 24 25 26 27 28 29 30 31 32 33 34 35 36 37 38 39 40 41 42 43 44 45 46 47 48 49 50
000
SXUS52 KTAE 221505
OSOTAE
OSOTAE
North Florida/South Alabama/Southwest Georgia Weather Roundup
National Weather Service Tallahassee Florida
1000 AM EST MON DEC 22 2014

Note: "fair" indicates few or no clouds below 12,000 feet with no
significant weather and/or obstructions to visibility.

!FLZ017-115-028-034-025-221600
...North Florida...

CITY           SKY/WX    TMP DP  RH WIND       PRES   REMARKS
TALLAHASSEE    FOG       57  54  89 NE3       30.00R VSB 1/4
APALACHICOLA   LGT RAIN  65  61  87 NE7       29.95R VSB 1/2
PERRY          CLOUDY    63  62  97 N5        29.98S FOG
CROSS CITY       N/A     67  66  97 SE5       29.97F
JACKSONVILLE   CLOUDY    66  66 100 S9        30.00S
$$

!FLZ112-006-005-002-011-221600
...Florida Panhandle...

CITY           SKY/WX    TMP DP  RH WIND       PRES   REMARKS
MARIANNA       LGT RAIN  53  53 100 N8        29.99R
BONIFAY        NOT AVBL
PANAMA CITY NW LGT RAIN  59  57  93 NE3       29.94S
TYNDALL AFB    FOG       57  57 100 NE9       29.96F VSB 1
TYND DRONE APT FOG       58  58 100 MISG      29.95S VSB 1/2
DE FUNIAK SPR  LGT RAIN  53  53 100 NE6       29.94F
EGLIN AFB      RAIN      57  53  88 VRB1      29.92S FOG
DESTIN         LGT RAIN  61  60  97 VRB3      29.92F
HURLBURT       NOT AVBL
CRESTVIEW      RAIN      54  53  97 E5        29.95R FOG
PENSACOLA      LGT RAIN  53  53 100 E10       29.90S
$$

!ALZ063-066-221600
...South Alabama...

CITY           SKY/WX    TMP DP  RH WIND       PRES   REMARKS
DOTHAN         LGT RAIN  48  48 100 E8G18     29.99F FOG     WCI  45
OZARK CAIRNS   LGT RAIN  50  50 100 NE12      29.94F
FT RUCKER HELI LGT RAIN  50  49  96 NE7       29.95F
RUCKER HELI 3  CLOUDY    50  50 100 VRB3G21   29.97F FOG
RUCKER HELI 2  LGT RAIN  49  49 100 E7        29.96F
FLORALA APT    HVY RAIN  53  52  96 VRB5      29.97R FOG
ANDALUSIA      CLOUDY    56  52  86 SE6       29.95R FOG
TROY           CLOUDY    50  49  96 E6        29.96F FOG
EUFALA         CLOUDY    50  49  96 E6        29.98F
MOBILE         CLOUDY    57  57 100 E8        29.88F FOG
$$

!GAZ120>161-221600
...Southwest and South Central Georgia...

CITY           SKY/WX    TMP DP  RH WIND       PRES   REMARKS
THOMASVILLE    FOG       54  54 100 CALM      30.02R VSB 1/4
BAINBRIDGE     CLOUDY    55  55 100 SE9       29.95F
MOODY AFB      FOG       51  51  97 E5        30.00S VSB 1/4
VALDOSTA       FOG       53  53 100 E3        30.00S VSB 1/4
MOULTRIE       FOG       52  52 100 CALM      30.02R VSB 1/4
BLAKELY        LGT RAIN  52  52 100 NE3       30.01S
ALBANY         RAIN      50  48  93 NW16      30.03R WCI  44
TIFTON         CLOUDY    49  49 100 N5        30.03R THUNDER FOG
FITZGERALD     TSTM      49  47  92 E5        30.06R VSB<1/4
CORDELE        LGT RAIN  50  48  94 NE8       30.03R
AMERICUS       CLOUDY    46  46 100 NE7       30.04R FOG     WCI  43
HOMERVILLE     FOG       54  54 100 E6        30.02S VSB 1/4
$$

!GMZ750-755-770-775-221600
...Coastal and Buoy Obs...

STATION/POSITION TIME  TEMP    WIND        PRES    VSBY  WAVE
                       AIR SEA DIR/SP/G                  HT/PER
                 (UTC) (F)     (DEG/KT/KT) (MB)    (MI)  (FT/S)
KEATON BEACH     1500   67     130/  8/ 11 1014.9F
CEDAR KEY        1400   63     120/  9/ 11 1015.5S
C TOWER          1500   65     110/ 13/ 14 1013.5F
APALACHICOLA BUO 1400   72 73  130/ 10/ 14 1013.4R         3/ 4
PANAMA CITY BUOY NOT AVBL
MOBILE BUOY      1500   73 74  160/  8/ 10 1011.2R         2/ 5
ORANGE BCH AL BU 1400   68 71  190/ 12/ 16 1011.2R         3/ 4
$$



USA.gov is the U.S. government's official web portal to all federal, state and local government web resources and services.